Temperature
19 17 16 17 17 18 19 18 18 19 20 19 19 18 18 19 19 19 19 20 20 20 20 20 20 20 20 19 19 19 18 18 18 17 17 17 16 16 16 16 15 15 15 15
17 17 18 19 19 19 19 18 18 18 19 19 18 19 19 19 19 20 20 20 20 20 20 20 20 20 20 20 19 19 19 18 18 18 17 17 16 16 16 16 15 15 15 15
17 18 19 20 19 19 19 18 18 18 18 18 18 18 18 18 19 20 20 20 20 20 20 20 20 20 20 20 19 19 19 18 18 18 17 17 16 16 16 16 15 15 15 15
18 19 20 19 19 19 18 19 19 18 17 16 18 16 17 18 18 19 20 20 20 20 20 20 20 20 20 20 19 19 19 18 18 18 17 17 17 16 16 16 15 15 15 15
18 19 19 19 19 19 18 19 18 18 17 16 17 17 17 17 17 18 19 20 20 21 21 21 20 20 20 20 20 19 19 19 18 18 17 17 17 16 16 16 16 15 15 15
18 19 19 19 19 19 19 18 17 16 16 16 17 17 17 17 18 19 19 20 20 21 21 21 21 20 20 20 20 19 19 19 18 18 17 17 17 16 16 16 16 16 15 15
18 19 20 20 19 19 18 16 16 16 15 16 17 17 17 18 19 20 20 20 21 21 21 21 20 20 20 20 20 19 19 19 18 18 18 17 17 17 16 16 16 16 16 16
17 17 19 19 18 18 17 16 15 16 16 16 17 17 18 20 21 21 21 21 21 21 21 21 21 20 20 20 20 19 19 19 18 18 18 17 17 17 17 16 16 16 16 16
17 17 19 20 19 18 17 16 16 16 16 16 16 17 19 19 20 20 20 20 20 21 21 21 21 21 20 20 20 20 19 19 18 18 18 17 17 17 17 17 16 16 16 16
18 17 18 19 19 18 17 16 15 16 16 16 17 18 18 19 19 19 19 20 20 21 21 21 21 21 20 20 20 20 19 19 18 18 18 17 17 17 17 17 16 16 16 16
18 17 18 18 18 18 17 17 16 15 15 16 16 17 19 19 19 19 20 20 20 20 21 21 21 21 21 20 20 20 19 19 18 18 18 18 17 17 17 17 16 16 16 16
17 16 16 17 18 19 18 17 16 15 15 15 15 16 20 19 19 20 20 20 21 21 21 21 21 20 20 20 20 19 19 19 19 18 18 18 17 17 17 17 16 16 16 16
18 16 16 17 17 18 18 18 17 16 15 15 15 17 19 19 19 20 20 21 20 21 21 21 21 20 20 20 20 20 19 19 19 18 18 18 17 17 17 17 16 16 16 16
18 16 16 17 17 18 18 19 18 16 15 15 16 17 19 19 19 19 20 21 21 20 21 21 21 20 20 20 20 20 19 19 19 18 18 18 18 17 17 17 16 16 16 16
18 17 17 18 19 19 19 19 19 18 17 17 18 18 19 19 19 20 20 20 20 20 20 20 21 20 20 20 20 20 19 19 19 18 18 18 18 17 17 17 16 16 16 16
17 18 18 18 19 19 19 19 19 19 19 18 18 19 20 20 20 20 20 20 20 20 20 20 21 21 20 20 20 20 19 19 19 19 18 18 18 17 17 17 17 16 16 16
17 17 17 17 18 19 18 19 19 19 19 19 19 19 20 19 20 20 20 20 21 21 21 21 21 21 21 20 20 20 19 19 19 19 18 18 18 17 17 17 17 16 16 16
17 16 16 16 18 18 19 20 20 20 20 20 20 20 20 21 21 22 22 21 21 21 21 21 21 21 21 21 20 20 19 19 19 18 18 18 18 17 17 17 17 16 16 16
17 17 16 16 17 18 19 20 20 20 19 20 20 21 21 22 21 21 22 22 22 22 22 22 22 21 21 21 20 20 19 19 19 18 18 18 18 17 17 17 17 16 16 16
16 16 16 16 17 18 19 20 21 20 19 20 20 20 21 20 18 19 22 22 22 22 22 22 22 21 21 21 20 20 19 19 19 19 19 18 18 18 17 17 17 16 16 16
17 16 16 16 17 17 19 20 21 19 19 20 21 21 21 20 20 22 22 22 22 22 22 22 21 21 21 21 20 20 19 19 19 19 18 18 18 18 17 17 17 16 16 15
17 16 16 15 16 18 19 20 19 19 20 21 21 22 21 21 22 22 22 22 22 22 22 21 21 21 21 20 20 20 20 20 19 19 18 18 18 17 17 17 16 16 16 15
16 17 16 16 17 18 20 20 21 21 21 21 21 22 22 22 22 22 22 22 22 22 22 21 21 21 20 20 20 20 20 19 19 19 18 18 18 17 17 17 16 16 16 15
16 16 16 16 17 18 20 21 21 21 21 21 21 22 22 21 21 21 21 21 21 21 21 21 21 20 20 20 20 20 20 19 19 19 18 18 18 17 17 17 16 16 16 16
16 16 16 16 17 18 19 20 20 21 21 21 21 21 21 21 21 21 21 21 21 21 20 20 20 20 20 20 20 19 19 19 19 19 18 18 18 17 17 17 16 16 16 16
15 15 16 16 17 16 18 20 20 20 20 20 21 21 20 20 20 20 20 20 20 20 20 20 20 20 20 19 19 19 19 19 18 18 18 18 17 17 17 16 16 16 15 15
Wind_Speed
1 4 1 4 4 4 3 2 3 2 1 3 5 8 10 10 10 9 9 10 10 10 8 9 9 9 8 8 8 7 7 6 6 5 4 4 3 2 3 4 6 8 8 8
4 2 6 5 2 2 2 2 2 2 2 2 4 5 8 10 11 12 12 12 11 9 8 9 9 9 8 8 8 8 8 7 6 4 4 3 3 2 2 2 5 7 8 7
4 5 4 3 2 1 2 4 2 1 2 4 3 1 4 5 6 8 11 12 12 13 13 12 10 9 9 9 9 9 8 8 7 6 5 5 4 4 3 3 3 4 7 8
2 4 2 2 2 3 2 2 3 3 3 1 2 2 6 6 6 10 11 12 13 12 12 12 11 10 10 9 8 9 8 8 7 7 7 7 5 3 2 1 1 2 6 7
3 2 1 2 3 3 4 4 4 3 3 0 1 3 6 6 9 12 13 14 14 13 14 14 13 12 10 9 9 9 9 8 7 7 8 7 5 3 2 2 3 3 3 5
4 3 3 3 1 3 4 4 5 4 3 2 5 4 6 8 15 14 14 15 15 14 14 13 11 10 9 8 8 9 9 7 7 7 7 8 7 6 5 3 3 2 2 3
3 2 2 2 2 1 5 6 2 2 1 5 3 4 8 11 12 17 17 16 15 14 14 13 13 12 11 11 10 10 10 8 7 7 7 7 8 7 7 5 4 3 1 1
1 4 4 3 4 4 4 6 5 4 3 4 2 6 8 9 10 13 14 14 14 14 15 16 16 14 13 12 11 11 10 8 7 7 7 6 6 5 4 5 4 4 3 2
5 4 3 3 4 6 4 3 5 4 1 2 4 6 7 2 5 10 12 13 15 16 16 16 15 14 14 13 12 12 11 9 8 8 7 6 6 6 5 5 4 3 3 2
6 2 2 2 3 2 5 6 4 3 2 2 4 4 4 2 5 10 13 14 15 15 15 15 14 14 13 12 11 11 11 10 8 8 7 6 6 6 6 6 5 4 3 2
5 4 2 1 5 6 4 4 4 3 2 2 3 6 4 5 6 9 12 14 15 16 16 15 14 13 12 11 11 10 10 9 8 8 7 7 6 6 6 5 5 4 4 4
5 4 2 5 5 6 6 6 7 5 3 3 2 7 7 4 5 8 10 12 14 15 15 14 14 12 12 12 11 11 10 10 9 8 8 7 7 6 6 5 5 4 5 4
6 5 2 3 3 2 4 5 6 6 4 4 3 7 6 2 2 5 9 10 11 12 13 12 13 13 13 13 12 11 11 10 9 9 8 7 7 6 6 5 5 5 5 5
7 5 6 7 6 4 4 6 7 6 5 5 7 8 8 5 2 4 7 10 11 12 13 14 14 13 13 13 12 12 10 10 10 9 9 8 7 7 7 6 5 6 6 6
6 4 5 6 6 4 5 6 8 8 8 8 8 8 10 7 7 8 8 9 12 13 13 15 15 14 13 12 11 11 11 10 10 10 9 9 7 7 6 6 6 6 6 7
5 5 3 4 6 5 6 9 10 10 9 8 7 9 9 6 5 6 8 11 13 14 15 15 14 14 14 14 13 12 11 11 11 11 10 8 8 7 7 7 7 7 6 6
5 6 3 4 4 0 5 10 11 8 7 8 9 9 4 3 7 9 11 13 14 15 15 15 15 15 15 15 15 15 13 11 11 11 10 9 9 8 8 8 7 7 6 6
8 6 4 2 1 4 8 6 8 8 6 8 8 7 7 8 9 8 9 12 13 14 14 15 14 13 12 12 12 12 11 12 12 11 10 10 9 9 8 8 8 6 5 6
7 7 4 3 2 5 7 3 5 6 3 5 7 6 4 3 4 1 5 10 13 14 13 13 13 13 12 13 13 13 12 12 12 12 11 11 11 10 9 9 8 6 5 5
5 6 5 3 3 4 6 5 3 6 1 5 3 4 3 5 4 5 5 6 8 8 9 10 10 10 12 12 13 14 13 13 14 13 12 11 11 11 11 10 7 5 5 5
3 3 4 4 4 6 7 5 4 5 6 4 4 4 5 5 7 6 4 4 6 7 8 9 10 11 12 13 14 14 14 15 14 11 11 10 11 11 10 8 6 6 6 6
7 5 5 5 4 7 5 2 5 6 3 1 3 4 5 4 3 3 4 4 5 6 6 8 9 9 9 12 14 14 15 13 10 11 11 10 10 9 9 8 7 7 7 7
6 7 6 7 6 5 3 4 3 5 4 3 3 3 5 4 3 4 4 4 5 6 7 7 8 8 8 10 13 15 12 10 11 11 11 10 9 8 8 9 9 6 6 6
3 2 4 2 2 2 1 3 2 3 3 3 4 4 4 4 4 4 4 3 3 4 5 6 8 8 8 9 10 11 10 11 13 12 11 10 9 8 7 7 8 7 7 7
3 2 3 2 1 2 3 1 3 4 5 5 5 4 4 5 3 4 4 3 4 3 4 6 7 8 8 8 8 8 10 12 12 11 10 9 8 9 8 7 6 8 8 9
2 4 5 5 6 5 3 2 3 5 4 4 4 5 4 3 3 3 3 3 3 4 4 4 5 6 7 8 8 8 10 12 12 10 9 8 8 7 7 6 3 4 5 9
Wind_Direction
40 69 240 232 206 181 180 206 246 261 158 141 177 180 184 184 181 181 183 182 180 185 188 172 161 156 150 146 138 140 134 132 123 115 110 101 89 67 48 52 62 65 66 65
45 266 239 213 194 159 173 199 251 321 33 110 181 199 193 188 189 186 185 188 185 179 177 173 164 161 156 153 148 145 146 143 139 136 134 133 129 108 76 50 53 60 67 65
184 241 247 212 187 196 222 187 182 199 31 51 105 251 221 216 199 195 191 187 184 180 177 174 172 167 156 156 158 155 154 143 137 128 111 95 72 55 45 41 29 32 63 67
246 254 239 204 208 171 223 196 149 126 96 257 144 212 250 216 211 206 199 189 188 186 179 176 174 168 164 164 159 151 148 140 138 130 127 130 129 135 171 159 69 38 56 63
257 250 186 206 220 172 185 162 129 126 121 157 189 178 256 203 212 214 204 196 191 188 182 180 178 172 165 157 150 149 143 140 139 133 134 130 130 142 135 104 80 49 35 52
240 240 200 198 199 154 130 91 67 54 74 249 216 188 251 208 208 205 204 199 193 189 184 179 172 159 154 148 146 145 141 140 139 135 135 138 140 138 130 125 114 67 34 31
304 286 243 169 121 83 106 97 65 11 344 253 218 205 245 226 208 200 197 198 193 184 177 169 165 163 159 155 152 149 145 145 144 139 139 147 148 146 149 154 152 143 106 63
217 276 236 191 167 167 157 136 154 182 219 277 241 231 253 237 213 196 191 188 183 179 175 173 172 169 166 161 158 155 151 150 149 146 148 150 146 143 149 156 154 157 158 164
190 255 261 199 159 145 138 158 166 139 213 261 265 275 298 270 193 188 183 179 182 181 177 176 173 170 167 164 165 162 157 153 154 154 147 145 146 145 149 150 147 152 160 150
163 219 276 203 122 116 144 147 111 131 173 258 282 268 255 239 193 189 185 184 184 180 177 175 173 173 170 167 166 162 160 159 159 156 155 151 149 146 145 138 141 149 159 134
148 159 291 144 179 181 157 140 130 132 158 180 274 275 232 207 201 194 192 185 179 177 176 175 175 174 167 161 161 163 163 156 157 158 153 144 146 143 138 134 142 145 142 135
156 139 213 247 238 188 171 172 152 154 198 192 219 273 274 226 215 189 186 182 178 177 174 172 170 168 165 166 167 169 167 164 166 161 154 152 148 142 137 137 144 141 134 134
148 130 108 342 332 190 187 190 173 148 143 172 200 268 300 288 212 186 177 173 173 170 168 166 166 171 173 172 171 171 169 169 164 157 154 150 149 150 151 149 143 134 129 122
132 135 169 195 219 205 212 201 175 153 169 201 224 253 287 287 220 192 179 173 168 170 171 171 173 176 176 175 174 173 172 168 162 158 157 159 165 165 163 154 141 136 133 127
129 168 211 228 230 207 221 217 195 195 193 197 229 236 252 239 208 193 179 172 165 169 175 178 179 179 177 176 175 173 172 169 163 159 163 170 169 162 153 147 144 136 131 131
128 164 195 273 252 234 240 233 220 215 208 215 233 255 250 233 190 182 180 174 175 179 183 182 180 179 182 181 179 175 175 171 163 164 170 167 161 157 156 153 146 134 128 126
157 151 156 262 282 23 260 227 214 212 208 193 217 235 230 199 193 191 190 185 187 187 186 184 184 185 186 185 180 179 176 167 164 168 168 167 163 160 161 155 144 142 141 135
156 147 153 219 32 235 248 239 197 199 225 210 218 234 208 201 197 190 185 186 192 191 188 188 186 186 184 178 175 171 165 165 169 172 173 170 165 164 160 154 155 155 149 147
161 147 143 151 209 274 292 277 181 169 245 243 220 233 215 172 101 287 215 193 192 191 189 189 187 184 177 175 171 164 167 169 172 178 179 176 170 166 164 167 168 163 154 154
107 119 131 143 170 236 258 271 200 120 288 280 205 201 187 127 144 240 236 196 189 184 180 179 175 170 173 175 167 166 172 175 184 187 184 176 172 171 174 175 170 164 159 161
115 114 150 167 203 257 260 268 119 139 223 254 195 176 162 168 199 216 192 169 172 169 169 166 164 171 179 171 168 174 178 189 191 181 173 172 175 176 174 169 164 157 153 149
173 169 181 156 183 248 273 109 153 196 218 193 159 152 145 161 166 145 142 144 147 147 151 157 165 175 174 168 171 179 190 189 171 166 168 173 174 175 170 160 161 156 152 153
185 188 180 178 203 240 239 173 175 157 147 149 136 129 124 121 123 125 132 142 152 157 162 162 164 168 169 173 177 185 190 169 161 164 170 171 169 169 163 164 163 159 160 165
269 145 131 141 261 256 107 109 110 118 118 119 116 115 106 113 120 120 130 138 145 155 163 160 158 166 177 181 182 184 171 161 161 168 172 168 168 168 166 167 170 171 176 179
229 142 120 132 236 49 24 71 126 103 90 88 86 91 104 108 112 133 139 151 162 159 161 162 170 179 184 179 177 168 161 160 165 169 172 170 171 171 172 177 184 186 196 192
226 166 155 194 206 164 203 233 122 101 92 96 90 71 61 92 117 130 148 159 158 159 155 157 165 172 175 170 170 167 163 163 164 169 173 174 172 172 172 172 180 212 202 202
Height
1515 1520 1524 1522 1521 1521 1522 1526 1528 1524 1519 1521 1525 1526 1526 1527 1529 1532 1533 1535 1538 1540 1543 1545 1547 1549 1551 1553 1554 1555 1556 1557 1558 1558 1559 1559 1559 1559 1559 1558 1557 1556 1556 1555
1521 1523 1517 1515 1516 1519 1521 1527 1528 1524 1519 1522 1526 1526 1524 1525 1526 1528 1531 1534 1536 1539 1542 1544 1547 1549 1550 1552 1554 1555 1557 1558 1559 1559 1559 1560 1560 1560 1560 1559 1559 1558 1557 1557
1522 1519 1513 1514 1517 1519 1521 1525 1526 1526 1522 1522 1527 1531 1527 1525 1525 1527 1529 1531 1533 1536 1539 1542 1545 1547 1550 1551 1553 1555 1557 1558 1559 1559 1560 1560 1561 1561 1561 1560 1560 1559 1559 1558
1517 1513 1513 1514 1516 1518 1524 1518 1519 1523 1529 1535 1532 1544 1532 1525 1525 1525 1526 1528 1530 1534 1537 1540 1543 1546 1548 1551 1553 1555 1556 1558 1559 1560 1560 1561 1561 1561 1562 1562 1561 1561 1560 1560
1517 1512 1513 1516 1515 1515 1519 1517 1520 1524 1530 1536 1533 1540 1534 1524 1525 1522 1522 1524 1527 1530 1534 1537 1541 1544 1547 1550 1552 1554 1556 1558 1559 1560 1561 1561 1562 1562 1562 1563 1562 1562 1562 1561
1513 1510 1511 1512 1511 1512 1515 1520 1524 1529 1535 1543 1534 1537 1534 1522 1515 1515 1517 1520 1523 1527 1531 1535 1539 1543 1546 1549 1551 1554 1556 1557 1559 1560 1561 1562 1562 1562 1563 1563 1563 1563 1563 1563
1516 1511 1509 1509 1514 1515 1518 1531 1543 1545 1548 1544 1529 1531 1525 1506 1503 1506 1510 1514 1519 1524 1528 1532 1537 1541 1544 1547 1550 1552 1555 1557 1559 1560 1561 1562 1563 1563 1564 1564 1564 1564 1564 1564
1524 1523 1511 1509 1512 1517 1520 1527 1544 1551 1550 1542 1529 1529 1512 1497 1496 1500 1505 1510 1515 1520 1525 1529 1533 1538 1541 1545 1548 1551 1554 1556 1558 1560 1561 1562 1563 1564 1564 1565 1565 1565 1565 1565
1521 1521 1507 1506 1507 1512 1521 1527 1528 1537 1538 1542 1534 1520 1505 1495 1495 1498 1502 1508 1512 1517 1521 1526 1531 1535 1539 1543 1546 1549 1552 1555 1557 1559 1561 1562 1563 1564 1565 1565 1566 1566 1566 1566
1510 1518 1510 1506 1507 1511 1514 1520 1530 1537 1544 1545 1534 1523 1515 1502 1499 1498 1500 1504 1508 1514 1518 1523 1528 1533 1537 1541 1545 1548 1551 1554 1556 1558 1560 1562 1563 1564 1565 1565 1566 1566 1567 1567
1506 1516 1515 1510 1511 1515 1517 1521 1526 1534 1536 1543 1542 1527 1499 1498 1496 1496 1497 1500 1505 1510 1515 1520 1525 1530 1535 1539 1543 1546 1550 1552 1555 1557 1559 1561 1562 1564 1565 1566 1566 1567 1567 1567
1504 1514 1520 1513 1505 1505 1509 1514 1522 1534 1537 1535 1538 1526 1492 1492 1491 1492 1495 1498 1503 1507 1512 1517 1523 1528 1533 1537 1541 1544 1548 1551 1554 1556 1558 1560 1562 1563 1564 1565 1566 1567 1567 1568
1501 1513 1523 1521 1516 1509 1509 1510 1513 1520 1528 1533 1536 1522 1491 1490 1490 1491 1494 1497 1502 1506 1510 1515 1520 1525 1530 1534 1538 1542 1545 1549 1552 1555 1557 1559 1561 1562 1564 1565 1566 1567 1567 1568
1495 1508 1517 1522 1515 1507 1508 1506 1508 1516 1526 1528 1523 1512 1496 1491 1491 1491 1493 1496 1500 1504 1508 1512 1517 1522 1527 1531 1535 1539 1543 1547 1550 1553 1555 1558 1559 1561 1563 1564 1565 1566 1567 1567
1493 1505 1505 1503 1500 1501 1502 1502 1503 1508 1510 1516 1509 1504 1494 1489 1489 1490 1492 1495 1498 1502 1506 1510 1514 1519 1524 1528 1532 1537 1540 1544 1547 1550 1553 1556 1558 1560 1562 1563 1564 1565 1566 1567
1493 1500 1502 1502 1497 1497 1499 1497 1498 1499 1500 1502 1501 1498 1486 1485 1486 1489 1491 1493 1496 1499 1503 1507 1512 1516 1520 1524 1529 1533 1537 1541 1545 1548 1551 1554 1556 1558 1560 1562 1563 1564 1565 1566
1493 1499 1506 1508 1499 1499 1504 1492 1491 1492 1490 1493 1497 1490 1483 1485 1485 1486 1488 1491 1493 1496 1500 1504 1508 1513 1517 1521 1525 1529 1534 1538 1542 1545 1549 1552 1554 1556 1558 1560 1561 1563 1564 1565
1491 1497 1505 1508 1505 1512 1493 1478 1479 1484 1484 1483 1483 1480 1480 1480 1481 1483 1485 1488 1491 1494 1498 1502 1506 1510 1514 1519 1523 1527 1532 1536 1539 1543 1546 1549 1551 1554 1556 1558 1559 1561 1562 1563
1482 1492 1504 1509 1510 1503 1487 1477 1477 1482 1485 1479 1479 1477 1477 1479 1481 1483 1484 1486 1488 1491 1495 1499 1503 1507 1512 1516 1520 1525 1529 1533 1536 1539 1542 1546 1549 1551 1553 1555 1557 1559 1560 1561
1482 1487 1500 1507 1507 1507 1489 1474 1473 1479 1488 1478 1476 1475 1476 1479 1487 1485 1483 1484 1487 1490 1493 1497 1501 1505 1509 1513 1518 1522 1525 1529 1532 1535 1539 1543 1546 1549 1551 1553 1555 1557 1558 1559
1489 1493 1499 1503 1504 1496 1478 1472 1474 1491 1488 1476 1474 1474 1475 1477 1480 1480 1481 1483 1485 1488 1491 1495 1499 1503 1506 1510 1515 1518 1522 1525 1529 1533 1537 1540 1543 1546 1548 1550 1552 1554 1556 1557
1486 1492 1496 1500 1503 1497 1473 1472 1477 1478 1474 1473 1473 1473 1474 1476 1478 1479 1480 1482 1484 1487 1490 1493 1497 1500 1504 1508 1511 1514 1518 1522 1526 1530 1533 1537 1540 1543 1545 1547 1549 1551 1552 1554
1479 1479 1482 1486 1486 1475 1471 1471 1472 1472 1473 1473 1473 1474 1475 1476 1477 1478 1480 1482 1484 1486 1489 1492 1495 1498 1501 1505 1508 1511 1515 1519 1523 1527 1530 1533 1536 1539 1542 1544 1546 1547 1549 1550
1473 1471 1475 1478 1476 1473 1472 1472 1473 1473 1473 1473 1474 1475 1476 1476 1477 1478 1480 1482 1484 1486 1488 1490 1493 1496 1499 1502 1505 1509 1513 1517 1520 1523 1527 1530 1533 1535 1538 1540 1542 1544 1545 1546
1471 1471 1475 1477 1474 1473 1473 1473 1473 1474 1474 1474 1475 1476 1476 1477 1477 1478 1480 1481 1483 1485 1487 1489 1491 1493 1496 1500 1503 1507 1510 1514 1517 1520 1523 1526 1529 1531 1534 1536 1538 1540 1541 1543
1468 1470 1473 1475 1471 1472 1473 1473 1473 1474 1474 1475 1475 1476 1477 1477 1478 1478 1479 1480 1482 1483 1485 1487 1489 1492 1495 1498 1501 1504 1507 1510 1514 1517 1519 1522 1525 1527 1530 1532 1534 1536 1538 1539